Theta_e
289 289 289 289 288 288 288 288 287 287 287 287 287 287 288 288 288 288 288 288 287 287 286 286 286 286 286 286 285 284 284 283 282 281 281 280 280 280 280 279 278 278 278 277 277 276 276 276 276 276 276 275 275 275 275 275 275 274 274 274 275 275
289 289 289 289 288 288 287 286 286 286 287 286 286 287 286 286 286 287 287 287 287 286 286 285 286 286 286 285 284 284 283 283 282 281 280 280 280 280 279 278 278 277 277 276 276 276 276 275 275 275 275 275 275 275 275 274 274 274 274 274 274 275
289 289 289 289 287 286 285 285 286 287 286 286 286 286 286 286 286 286 286 286 286 286 285 285 285 285 285 284 284 284 283 282 282 281 280 279 279 279 278 278 277 277 276 276 276 275 275 275 275 275 275 274 274 274 274 274 274 273 273 273 273 273
288 288 288 285 284 286 285 286 286 285 286 287 287 286 286 286 286 286 286 286 286 285 285 284 284 284 283 283 283 283 282 281 281 280 279 279 278 278 278 277 277 276 276 275 275 275 275 275 275 274 274 274 273 273 274 273 273 272 272 272 272 272
288 288 288 287 287 288 287 286 285 286 286 286 286 286 286 286 287 286 286 285 285 284 284 283 283 283 282 282 282 282 281 281 280 280 279 278 277 277 277 277 276 276 275 275 275 275 274 274 274 274 274 273 273 272 272 273 272 272 272 271 271 271
286 285 286 287 287 287 287 287 287 286 286 286 286 286 286 286 286 286 285 284 284 283 283 282 282 282 282 282 282 281 281 280 279 279 279 278 277 277 276 276 276 275 275 274 274 274 274 274 273 273 273 273 272 272 272 272 272 272 271 271 271 270
286 288 288 288 288 288 288 287 287 286 286 286 285 286 286 286 285 284 284 284 283 282 282 282 282 282 281 281 281 281 280 279 279 278 278 277 276 276 275 275 275 275 274 274 274 273 273 273 273 272 272 272 272 272 271 271 271 271 271 271 270 271
289 289 289 289 288 288 288 287 287 286 286 285 286 286 285 285 285 284 284 283 283 282 282 282 281 281 281 281 281 280 279 279 278 278 277 277 276 275 275 275 274 274 274 274 273 273 273 272 272 272 271 271 271 271 271 271 271 271 271 270 270 270
288 289 289 289 288 287 287 287 286 286 285 285 285 285 285 285 284 284 283 283 283 282 282 282 282 282 281 281 280 279 278 278 277 277 276 276 276 275 274 274 274 274 273 273 272 272 272 271 271 270 270 270 270 270 270 270 270 270 270 270 270 270
291 290 289 288 288 287 286 285 285 285 285 285 284 284 284 284 284 283 283 283 282 282 282 282 282 281 281 281 279 278 278 277 276 276 276 275 274 274 274 273 273 272 272 271 271 271 271 270 270 269 269 269 269 269 269 269 269 270 270 270 270 270
291 291 290 289 287 286 285 284 283 283 283 283 283 283 283 284 283 283 282 282 282 282 282 282 281 280 280 279 278 277 276 276 276 275 274 274 274 274 273 273 272 271 270 270 270 269 270 269 269 269 269 269 269 269 269 270 270 270 270 270 270 271
291 291 290 289 287 286 285 284 283 283 283 282 282 282 283 283 282 282 282 282 282 282 281 281 280 279 279 278 277 276 276 275 274 274 273 273 272 272 271 271 270 270 270 269 269 269 269 269 269 271 274 273 270 270 270 270 270 270 270 270 271 272
291 290 290 289 289 287 286 286 285 283 282 282 281 282 282 283 282 282 282 282 282 281 280 280 279 278 277 277 276 275 274 274 273 272 272 271 270 270 269 269 269 269 269 269 268 268 268 269 269 274 276 276 275 271 271 270 271 271 271 272 272 272
290 289 290 290 290 288 287 286 285 283 282 282 281 282 281 282 282 282 282 282 281 280 279 279 278 277 276 276 275 274 273 273 272 271 271 269 269 269 268 269 269 268 268 269 269 269 269 269 272 275 276 277 278 276 271 271 271 272 273 273 273 273
290 290 291 291 290 290 289 287 286 283 283 282 282 281 280 281 281 281 281 280 279 279 278 278 277 276 275 275 274 273 272 271 271 270 269 269 269 268 268 268 268 268 268 268 268 268 269 269 274 276 277 277 278 278 277 274 274 273 273 274 274 274
291 291 291 291 292 291 291 289 287 287 285 283 281 280 280 280 280 280 279 279 279 278 277 277 276 275 275 274 273 272 271 270 270 270 269 268 268 268 268 267 267 267 267 268 268 269 269 269 274 277 277 277 278 278 278 275 274 274 274 274 274 274
289 289 290 290 290 290 289 288 287 286 282 281 280 280 280 280 280 279 279 278 278 277 277 276 276 275 274 273 272 271 270 270 270 269 268 268 268 267 267 267 267 267 268 269 269 269 269 269 275 277 277 277 277 278 277 275 275 274 274 274 274 273
289 289 290 291 290 289 288 289 287 284 283 281 281 279 280 279 279 279 278 277 277 277 277 276 275 274 273 272 271 270 270 270 269 268 268 267 267 267 267 267 267 267 268 269 268 269 269 270 275 276 276 276 277 277 275 275 274 274 273 272 273 272
290 290 290 289 289 288 287 287 284 283 280 279 279 279 278 278 278 278 277 277 277 276 276 276 275 273 272 271 270 270 270 270 269 268 268 267 267 267 267 267 267 268 268 268 268 268 268 269 273 275 275 276 277 276 274 274 273 272 272 272 272 272
288 288 287 288 288 287 285 281 281 280 279 279 278 278 277 278 278 278 278 278 277 276 276 276 275 273 272 271 270 270 271 270 269 268 268 267 266 267 267 268 267 268 268 268 268 268 267 267 271 274 275 275 276 276 273 273 272 271 271 271 272 272
286 286 285 284 285 282 279 279 279 280 279 278 277 278 277 277 278 278 278 278 277 276 276 275 275 274 272 271 271 271 270 269 268 268 267 268 268 267 268 268 267 267 267 268 267 270 268 267 270 274 274 275 276 275 274 273 271 271 271 271 271 272
285 287 288 286 283 277 278 278 278 279 279 277 276 277 277 278 279 279 278 277 276 276 275 275 274 274 272 272 271 270 270 269 267 267 267 268 268 267 267 267 267 266 266 267 267 268 268 267 267 270 274 275 276 276 273 272 271 270 270 271 271 271
285 286 287 287 282 278 278 277 278 278 277 276 276 277 278 278 277 277 277 277 276 275 275 275 274 273 272 272 271 270 268 268 267 267 267 267 267 267 266 266 266 266 266 266 267 267 268 268 267 269 274 275 276 276 275 272 271 271 271 271 271 272
287 287 288 286 280 278 278 280 280 278 276 276 276 278 276 276 276 276 275 275 275 274 274 273 273 273 272 271 270 268 267 267 267 267 267 267 266 266 265 266 265 265 266 266 266 266 266 269 270 268 273 275 275 276 276 272 272 273 272 271 272 272
288 288 287 286 279 279 280 279 280 279 278 277 279 277 276 275 275 275 274 273 272 272 272 272 271 271 270 269 269 268 267 266 266 266 266 266 266 265 265 265 265 265 265 265 266 266 267 268 270 271 270 274 275 275 275 275 274 275 274 272 270 270
287 288 288 286 279 279 281 280 281 280 279 280 279 276 275 274 274 273 272 272 271 270 270 270 270 270 269 268 268 267 266 265 265 265 265 266 265 265 264 264 264 264 264 265 265 266 267 268 269 272 272 272 274 274 275 275 275 276 273 273 271 271
286 287 287 286 280 279 280 280 281 280 278 279 277 276 274 273 272 271 271 271 270 270 269 269 268 268 268 267 267 267 266 265 264 264 265 265 265 264 264 264 264 264 265 265 266 266 267 268 268 269 271 273 273 274 274 275 275 274 274 271 270 270
288 287 286 286 283 279 279 280 281 281 282 275 275 275 274 272 271 271 270 270 269 269 268 267 267 267 267 267 267 267 266 265 265 264 265 265 264 264 264 264 264 265 265 265 266 266 267 267 267 267 268 271 272 273 274 274 273 273 273 272 271 271
288 288 287 286 285 282 281 281 281 282 281 275 276 274 273 272 272 271 270 269 268 267 267 267 266 265 266 266 266 266 266 265 265 264 264 264 264 264 264 265 265 265 265 265 266 266 266 266 265 266 267 268 268 269 271 271 271 272 272 270 269 269
287 287 287 287 287 285 282 280 281 281 280 276 275 273 272 272 272 271 269 268 267 266 266 266 265 265 265 265 265 265 264 264 265 264 264 264 264 265 265 265 265 265 265 265 265 265 265 265 265 265 266 267 268 268 270 270 269 269 269 267 268 267
286 286 286 287 288 287 285 282 281 281 279 276 274 273 272 272 270 270 268 267 266 265 265 266 265 265 265 265 264 264 264 264 264 264 265 267 267 267 267 266 266 266 267 266 266 265 264 264 264 265 269 268 270 269 270 269 269 269 268 269 270 264
285 285 285 286 287 287 286 284 282 279 278 275 273 272 272 271 269 268 267 266 265 265 264 264 264 264 264 264 264 263 264 266 268 267 266 266 270 272 272 272 267 267 267 266 266 266 265 264 265 271 273 273 273 274 273 272 272 272 270 271 270 264
284 284 285 285 285 286 285 284 282 279 276 275 273 272 272 270 269 268 266 265 265 265 264 264 263 264 264 264 263 263 263 264 267 271 271 270 271 272 273 273 272 273 271 268 266 268 270 270 272 274 274 274 274 273 273 272 272 272 271 270 264 256
282 283 284 285 285 285 285 284 282 279 276 274 272 272 272 270 269 268 266 265 265 264 264 264 263 263 264 264 263 263 263 264 264 267 271 272 273 274 274 274 274 273 272 272 269 269 269 272 274 274 274 273 273 272 272 272 272 271 270 268 266 255
282 282 283 284 285 285 284 283 281 278 275 273 272 271 271 270 270 269 268 266 265 264 264 264 263 263 264 263 263 263 264 265 265 265 266 270 275 275 275 275 274 274 273 273 272 272 271 272 273 274 273 273 272 272 271 271 271 270 269 266 256 251
278 279 280 281 282 283 283 283 282 278 274 272 271 271 271 271 270 270 268 266 265 264 264 264 263 263 264 264 264 264 265 266 266 266 267 268 269 270 273 275 274 274 274 273 273 273 273 273 274 273 273 272 272 271 271 270 268 269 267 262 253 252
273 274 275 276 276 278 280 281 283 280 274 271 270 270 270 270 269 268 267 265 265 264 264 264 263 263 264 264 264 265 266 266 267 267 267 268 267 267 267 268 270 273 274 271 271 273 273 274 273 273 272 272 271 270 269 267 260 256 254 254 252 253
271 271 272 272 273 274 275 278 281 282 274 271 270 270 270 270 269 268 267 265 265 264 264 264 263 263 264 264 264 266 266 267 267 267 267 268 268 267 266 267 268 269 272 273 272 273 274 273 273 272 272 270 270 269 267 256 253 252 251 252 251 251
Wind_Speed
12 13 15 15 14 12 11 10 9 9 10 12 13 17 20 19 15 13 12 13 13 14 17 17 15 14 13 11 11 11 12 13 11 12 11 9 10 10 10 10 10 9 8 8 8 7 7 7 7 6 6 5 5 4 4 3 3 4 4 4 4 4
12 13 14 14 16 16 12 9 7 11 13 11 12 12 9 9 13 15 16 16 13 12 11 12 13 13 13 12 13 13 14 13 12 12 11 12 10 11 11 11 11 10 10 8 8 8 7 7 6 6 6 6 5 5 5 4 4 4 4 4 3 3
11 12 12 12 6 4 6 9 14 15 11 12 14 16 16 15 15 14 15 12 14 13 15 16 14 15 12 12 13 13 12 12 12 12 12 10 12 11 12 12 12 11 10 10 9 9 8 8 7 6 6 6 5 5 5 4 5 5 5 3 4 3
10 9 7 5 5 7 9 13 11 10 14 17 14 12 13 15 15 15 15 12 11 13 14 13 11 11 11 14 13 14 13 13 13 12 11 13 11 13 13 13 11 10 11 10 9 9 8 8 8 7 7 7 7 6 5 6 6 5 5 4 4 4
11 11 10 11 13 14 12 9 11 15 16 14 14 16 18 17 17 13 11 12 12 13 10 9 11 11 12 14 13 15 14 13 12 12 14 13 12 10 12 12 12 12 11 10 10 10 9 9 9 8 8 8 8 7 6 6 6 6 5 5 5 4
6 4 7 11 12 13 15 16 15 14 12 13 13 16 18 16 14 12 11 11 11 10 11 12 11 12 13 14 13 15 14 13 12 12 13 13 11 13 10 11 12 11 12 11 11 11 10 10 9 9 8 8 8 7 7 6 6 5 5 5 4 4
7 11 12 13 14 13 13 14 14 14 15 13 15 17 16 13 9 10 12 13 13 12 13 13 13 15 15 15 12 14 14 14 13 12 13 12 12 12 11 10 11 12 12 12 13 12 11 11 10 9 8 7 6 7 6 6 5 4 4 5 5 4
11 10 11 12 13 13 14 14 14 14 14 15 15 14 12 14 13 13 12 13 14 14 15 15 14 16 17 16 13 14 13 13 13 13 11 13 14 12 12 13 12 12 13 11 11 11 10 9 9 9 8 7 7 6 6 5 5 5 5 5 5 4
11 13 13 12 11 11 12 13 14 14 15 15 14 14 13 13 13 13 14 14 15 14 15 16 18 17 16 16 14 11 11 12 12 13 14 12 13 13 12 11 12 9 10 10 10 10 10 9 9 8 7 7 7 6 6 5 5 5 5 5 5 5
14 13 12 11 12 12 11 11 13 14 15 16 14 13 12 11 14 14 14 14 14 15 16 16 14 14 15 13 12 12 12 11 11 12 11 11 12 13 12 13 12 9 8 9 9 9 8 9 8 8 7 7 7 6 5 5 5 5 5 6 6 6
14 14 12 12 12 12 13 12 11 10 10 10 10 11 14 13 13 13 14 14 16 16 15 12 10 9 10 12 12 13 13 12 11 10 10 10 10 9 10 9 10 11 10 8 9 9 8 8 8 7 8 8 7 6 6 6 6 6 6 6 6 7
14 13 11 11 12 14 13 12 12 13 14 14 12 13 13 12 14 15 15 16 17 14 12 12 11 11 11 12 14 14 13 12 12 11 11 10 10 9 9 9 9 9 10 10 9 8 8 7 6 9 15 11 7 7 6 5 5 6 6 6 7 7
14 13 11 13 15 15 14 14 15 13 13 11 10 13 13 13 14 14 15 17 14 12 11 12 12 12 13 13 12 11 13 13 12 11 11 10 9 10 9 10 11 10 10 11 11 11 9 8 7 16 15 15 16 9 6 6 6 5 7 7 7 7
16 13 15 17 17 15 13 13 13 11 13 12 13 13 11 13 13 15 15 14 11 12 13 13 13 13 12 12 13 13 13 12 12 12 12 11 11 10 10 11 11 10 10 9 9 8 6 6 11 16 16 15 15 13 8 6 6 6 7 7 7 7
15 16 17 16 15 15 15 16 12 12 14 13 15 10 12 14 14 14 12 11 12 13 13 12 14 14 13 14 13 13 13 14 14 13 13 14 12 10 12 11 10 9 9 9 9 8 8 7 14 16 16 15 14 15 12 7 7 6 6 7 7 7
12 13 15 16 17 17 16 13 15 16 14 12 7 12 13 13 12 12 12 11 12 13 13 13 14 14 14 13 13 13 14 14 15 13 11 10 10 11 10 10 11 10 10 10 10 9 8 8 13 16 16 14 14 14 12 5 6 6 6 7 8 7
11 12 12 13 16 14 11 10 11 11 6 9 12 12 13 13 13 12 12 13 13 13 13 14 15 15 14 14 14 14 14 15 13 13 12 12 13 13 13 13 12 10 10 9 7 7 7 6 14 15 14 13 13 13 11 5 6 6 6 5 5 7
12 13 14 14 10 10 9 12 10 9 11 8 12 11 12 12 12 13 11 12 13 15 15 15 15 14 14 14 14 15 16 15 15 16 12 11 9 7 7 7 7 10 10 9 8 8 5 7 15 14 14 14 13 14 7 5 6 5 3 3 7 8
10 10 10 9 8 9 11 10 6 8 6 8 8 10 10 11 12 13 15 14 14 15 15 15 16 15 15 15 16 16 16 15 13 12 10 12 11 11 11 11 10 10 10 11 9 8 6 7 13 15 15 14 14 11 5 6 4 3 4 5 7 7
11 10 6 9 10 9 5 2 5 7 7 8 8 10 11 13 14 15 15 16 15 15 15 15 15 16 16 15 18 17 14 12 11 12 12 14 13 12 12 9 6 6 7 8 9 8 8 7 11 16 14 14 14 11 6 4 5 4 3 4 7 7
11 9 8 6 7 9 3 2 5 7 7 8 9 9 11 14 15 13 16 17 15 14 14 14 15 16 17 17 17 15 16 15 15 12 11 11 12 12 9 7 7 6 4 5 6 13 9 7 10 15 14 15 15 11 6 6 4 4 5 5 6 7
11 13 12 10 8 3 1 1 2 4 5 6 6 9 11 14 17 15 10 9 12 13 13 14 16 16 17 17 14 12 13 11 10 12 12 10 11 12 8 7 7 9 8 8 7 9 9 8 6 10 16 15 15 14 7 5 5 5 6 6 6 6
8 8 9 8 3 1 2 4 4 4 4 5 7 12 14 6 2 3 5 5 8 11 13 12 14 15 13 12 13 12 11 11 12 12 12 12 10 12 9 8 7 7 8 8 8 7 8 7 8 9 16 15 15 14 11 6 6 5 5 6 7 6
12 10 10 9 2 3 5 5 5 4 4 5 10 12 2 4 6 7 8 8 7 7 9 10 10 10 11 11 11 12 11 9 9 11 13 11 10 11 8 8 7 7 7 8 8 7 7 9 12 7 13 15 15 13 14 7 6 6 6 6 5 4
14 14 12 10 5 3 4 5 6 6 6 9 11 4 5 5 7 8 9 10 10 10 9 9 11 11 10 11 12 13 13 11 11 12 12 14 9 9 10 9 8 8 8 7 6 6 7 8 10 13 9 14 14 14 12 11 9 10 4 2 3 4
14 15 13 11 6 3 3 5 6 6 8 14 7 7 7 8 8 10 10 10 10 10 10 10 11 10 10 12 13 13 13 13 13 13 13 12 16 12 8 8 7 7 7 7 7 6 5 6 5 11 14 11 14 12 12 11 9 8 3 3 3 2
15 16 16 14 8 5 3 3 5 5 9 6 6 8 10 10 10 10 10 11 11 11 9 9 9 10 11 11 13 14 13 13 15 14 12 14 10 9 9 8 7 7 6 6 7 7 6 5 5 5 11 15 13 13 12 10 9 7 8 3 1 2
13 13 13 13 9 6 4 4 5 8 10 3 6 6 8 10 12 12 12 11 10 12 12 12 10 10 11 12 11 13 13 15 15 14 13 10 8 7 8 9 9 7 7 7 7 7 6 7 6 5 5 9 11 11 12 10 8 7 7 7 4 7
13 14 14 13 9 6 7 8 9 11 7 7 7 8 9 10 10 11 11 12 11 11 12 14 11 10 10 11 10 10 11 12 11 8 9 9 9 9 9 9 10 9 7 8 9 8 8 7 6 6 6 5 5 4 5 6 4 6 7 3 2 4
14 14 14 14 13 7 8 10 11 11 7 4 7 8 10 11 12 12 12 13 12 12 12 13 14 15 9 12 13 13 12 11 7 10 12 12 12 12 10 10 8 9 12 11 11 10 8 7 6 7 7 7 6 6 5 5 5 5 4 3 3 4
14 14 15 15 13 11 8 11 12 9 9 8 8 10 12 11 11 10 11 11 11 11 11 12 13 12 13 12 11 12 10 7 9 8 4 11 12 15 16 15 13 12 13 12 14 13 10 8 9 8 9 7 10 8 7 6 5 5 5 5 6 5
14 14 15 15 14 13 11 12 12 9 8 8 9 10 12 10 9 9 10 10 11 10 11 11 11 12 13 13 13 11 9 5 12 13 12 13 15 15 12 14 14 15 13 12 10 11 14 14 11 15 18 16 16 15 12 11 10 11 8 7 5 6
15 15 16 16 14 13 13 13 12 9 8 10 10 12 12 11 10 9 9 10 11 12 13 13 12 13 13 12 12 13 12 10 11 17 17 10 14 14 14 12 13 18 16 14 13 10 12 15 19 20 17 16 14 12 11 10 10 9 9 7 7 4
17 16 16 15 14 14 13 13 12 10 10 11 11 12 12 13 12 12 12 12 11 12 13 12 13 13 14 13 11 14 14 14 13 12 16 16 16 17 16 15 18 19 18 17 16 13 11 17 18 17 16 16 14 12 11 11 11 10 9 7 8 4
15 15 15 16 16 16 14 13 13 10 9 10 12 12 13 14 13 13 11 11 11 11 13 11 13 14 14 15 16 15 15 15 15 13 13 13 18 19 19 20 21 21 19 19 19 18 16 15 14 17 17 15 14 12 11 11 11 11 11 10 5 5
15 17 18 18 19 18 16 15 14 11 10 11 12 13 14 15 15 15 11 12 13 13 13 13 14 15 14 14 15 16 16 15 15 16 16 15 13 13 15 18 21 21 21 20 19 18 17 17 17 17 16 15 14 13 12 12 8 11 10 8 5 2
18 17 20 20 21 20 19 19 17 13 10 12 14 14 14 14 13 10 10 13 12 11 13 12 11 10 12 12 14 15 14 14 14 15 16 16 16 16 15 12 13 18 20 16 16 18 19 18 18 17 16 15 14 13 13 11 6 4 3 4 2 1
18 19 18 20 15 19 22 23 22 16 9 12 14 15 15 15 14 12 10 11 14 12 11 12 14 13 12 14 15 14 12 12 13 14 13 13 13 14 14 12 10 11 17 23 18 20 19 18 17 16 15 14 13 14 12 6 4 5 3 2 1 1
Wind_Direction
214 209 209 211 212 215 216 210 198 201 208 211 207 207 207 204 200 203 207 206 206 199 197 195 193 192 190 184 174 172 179 179 176 174 172 158 162 157 157 157 157 157 157 156 156 155 153 149 147 144 144 146 151 158 167 177 182 206 226 231 225 236
217 214 215 211 210 211 208 198 197 209 211 204 211 217 214 207 205 204 207 209 205 202 194 196 194 189 185 181 174 179 184 180 173 169 166 170 160 164 158 158 160 158 158 160 157 156 153 152 149 150 148 148 158 163 171 188 186 207 220 230 219 219
224 226 223 224 232 216 193 196 203 208 199 207 208 207 206 207 209 204 211 205 207 200 195 195 188 188 180 175 181 180 181 176 174 174 168 153 168 159 160 162 163 162 161 159 162 161 162 156 157 156 152 154 162 169 177 187 190 207 222 216 235 222
228 232 236 235 204 218 210 208 204 203 204 210 207 206 210 209 210 206 208 203 207 207 201 190 187 180 178 179 179 181 178 176 176 168 159 169 166 165 163 164 162 161 160 161 163 161 159 158 157 158 154 162 166 176 175 184 192 206 217 212 231 224
220 219 217 212 212 215 214 209 207 211 213 206 203 204 211 207 210 205 199 197 201 206 202 185 184 181 182 182 182 182 178 177 171 168 168 168 165 168 166 164 162 163 161 161 162 161 162 161 161 161 159 167 171 175 182 186 193 202 209 214 224 221
238 224 217 217 216 215 212 209 213 214 209 208 207 210 212 207 206 198 196 199 202 194 186 191 183 178 185 188 189 184 178 173 172 170 170 167 164 167 168 163 162 161 164 163 164 165 163 163 163 163 166 170 172 176 185 180 179 189 200 218 227 225
230 224 222 217 217 218 216 215 212 210 213 206 206 213 210 206 196 193 196 195 194 189 191 193 184 183 186 191 189 189 178 174 169 172 170 165 169 167 160 165 165 165 167 170 170 167 167 166 162 161 164 166 168 174 179 180 183 195 200 214 225 230
230 232 229 225 222 218 214 215 215 213 212 211 209 211 198 201 190 196 192 193 192 194 192 191 190 189 188 187 187 187 183 175 171 170 170 170 167 165 170 168 172 174 174 171 168 163 160 157 158 160 162 162 162 165 168 178 190 200 211 214 222 223
250 238 232 227 226 220 218 214 212 211 209 213 208 207 199 197 191 193 193 192 194 193 196 194 196 192 185 184 182 174 174 179 176 171 172 172 167 167 170 174 171 174 167 163 156 159 157 156 155 157 159 159 161 165 174 181 193 210 214 219 223 229
248 246 239 231 229 225 224 220 216 213 208 210 204 199 195 193 191 192 192 190 195 198 198 199 197 191 187 177 169 170 173 172 175 176 169 164 169 173 173 171 170 162 157 157 155 153 150 151 154 155 156 159 162 168 170 179 197 217 225 227 229 227
246 245 242 234 230 229 227 223 222 219 220 217 201 192 198 190 187 190 191 192 197 201 197 190 186 192 184 171 165 168 172 172 172 169 167 170 169 169 169 164 158 156 152 149 150 150 152 156 161 162 163 161 168 168 179 189 201 215 222 231 236 241
248 247 242 241 234 231 228 224 222 215 212 212 199 196 198 173 191 188 191 196 201 195 185 181 179 180 179 173 172 172 168 167 168 167 168 170 166 160 156 154 155 157 157 152 152 152 155 162 161 174 176 174 166 168 172 184 199 208 221 235 243 245
253 246 244 242 238 232 228 224 222 217 217 212 194 200 190 182 188 190 192 200 195 184 176 176 180 173 180 180 169 166 166 168 167 166 166 163 159 156 155 154 157 163 165 162 160 161 164 169 172 181 185 183 179 171 173 176 188 202 224 230 242 254
247 240 238 239 239 236 232 231 226 213 216 205 201 199 178 184 188 192 197 195 178 177 177 180 174 174 178 173 175 170 169 162 163 166 165 159 159 162 159 164 168 163 161 160 160 158 155 160 181 184 186 187 188 180 170 176 186 206 221 233 242 251
232 229 235 238 240 239 234 228 223 216 215 201 208 171 175 187 190 191 190 182 176 179 178 174 175 177 176 179 172 167 164 166 167 167 165 172 167 156 165 167 160 164 162 162 157 158 168 169 185 183 184 186 189 195 188 176 191 209 221 234 244 253
234 233 234 235 237 234 233 224 219 223 214 201 166 169 184 180 187 185 184 177 180 179 177 175 175 178 179 173 169 167 169 170 175 171 166 155 155 164 165 162 164 164 168 171 169 165 167 168 182 181 183 184 192 196 197 179 197 216 227 234 244 248
238 239 241 243 240 239 234 234 222 225 184 166 176 182 174 183 180 182 179 180 181 176 176 177 177 178 174 171 169 170 172 173 168 166 167 166 169 169 170 168 167 173 172 171 166 153 163 169 179 179 180 184 191 194 195 188 198 216 224 221 241 261
238 237 238 240 244 244 228 230 220 197 202 173 177 176 179 176 179 183 176 181 183 182 180 176 178 176 171 171 171 173 175 175 173 170 165 161 160 157 151 160 165 169 171 168 163 160 148 165 177 175 179 185 187 187 188 183 201 193 204 252 255 255
287 266 264 268 250 242 233 229 192 185 163 168 177 170 173 172 181 185 186 188 186 183 180 178 176 174 173 173 174 178 177 174 170 165 160 160 165 164 169 172 173 172 168 166 167 156 148 163 177 177 180 183 183 185 171 178 166 199 222 233 249 256
321 309 292 274 274 269 280 182 164 155 164 175 167 166 178 181 192 189 188 192 187 183 179 178 174 174 174 175 181 180 177 171 166 169 169 169 165 170 173 161 141 154 162 162 163 163 153 161 179 179 179 179 182 178 159 174 176 175 195 228 244 254
327 322 346 351 335 333 354 126 146 154 175 176 179 179 180 196 198 188 193 194 182 177 175 175 175 176 176 181 182 176 173 174 174 167 166 172 170 170 155 151 141 140 140 154 155 169 161 154 175 179 177 179 182 182 160 163 150 189 221 227 240 250
349 348 350 346 329 327 25 110 151 177 177 182 168 184 201 206 205 203 191 166 169 173 173 177 179 179 179 180 173 173 172 162 158 169 171 172 163 132 146 142 145 148 158 162 166 178 166 166 173 182 178 180 183 180 161 152 172 202 212 236 245 246
320 309 310 302 274 198 153 138 148 193 184 168 179 209 215 206 118 134 166 169 167 172 176 177 181 177 176 172 169 163 160 167 169 165 171 166 161 139 122 145 144 139 155 165 171 174 168 169 161 176 177 180 180 183 179 157 180 188 218 230 244 237
312 310 312 311 268 178 169 158 171 187 175 176 213 222 140 133 149 136 141 158 169 173 174 173 168 166 164 160 156 162 166 165 165 169 169 164 144 150 143 142 148 150 153 166 171 174 170 175 171 167 178 179 181 183 187 164 179 206 215 231 223 254
312 310 304 300 276 195 185 163 182 183 185 208 226 173 150 147 149 150 151 155 162 169 169 167 164 163 162 162 163 162 164 160 164 169 168 164 149 148 148 152 151 150 154 160 170 175 176 174 172 171 177 180 178 181 191 193 200 223 210 200 231 246
309 307 305 303 288 244 213 182 201 203 200 224 188 162 150 152 152 154 155 158 161 158 162 164 164 162 162 162 160 164 162 164 168 168 172 172 155 145 144 152 147 148 151 155 162 174 174 171 171 179 173 175 178 184 189 202 210 215 206 206 213 238
305 306 306 304 297 282 263 242 222 230 231 237 159 169 163 156 153 154 163 161 158 160 158 153 161 163 163 166 164 166 167 164 166 170 178 171 173 159 147 149 153 153 147 151 161 164 168 153 153 166 173 174 178 183 191 197 200 218 238 242 171 248
305 299 295 295 296 283 269 253 230 241 244 156 175 167 165 158 158 162 163 162 160 159 154 154 157 162 167 169 175 175 172 167 171 174 174 174 159 156 148 153 155 148 150 155 154 157 144 150 160 170 185 183 183 186 187 185 198 216 234 243 233 261
311 309 306 299 291 271 264 250 240 239 238 184 175 164 162 166 167 165 162 163 162 154 160 162 164 165 169 174 173 177 176 175 171 156 160 162 163 166 161 152 152 151 152 150 155 140 147 158 169 178 189 186 180 177 176 183 186 216 232 216 257 273
304 303 302 296 290 266 252 252 248 242 229 196 177 168 165 172 175 172 175 169 166 167 171 173 166 166 159 178 178 175 159 161 165 170 177 172 171 158 162 164 160 159 159 157 154 153 153 165 173 188 190 187 181 188 182 177 169 197 154 161 232 143
299 296 292 287 287 282 256 251 249 239 212 195 181 173 175 183 182 175 170 170 166 173 175 169 171 176 172 175 178 187 180 158 169 171 138 178 172 174 170 174 178 171 168 157 157 155 161 163 183 194 188 193 186 186 189 165 178 178 148 211 179 125
291 290 287 284 283 280 270 257 252 234 209 189 184 181 186 181 174 174 177 177 177 173 172 175 172 174 176 177 174 168 170 199 186 181 168 177 193 201 206 185 177 172 161 158 161 163 163 173 172 182 180 185 188 180 173 176 182 172 172 189 132 103
293 290 285 282 279 274 268 260 253 232 205 194 189 189 189 171 175 182 181 179 188 183 179 177 175 177 177 176 168 169 169 163 183 187 189 196 188 191 185 178 166 158 155 147 145 157 152 153 165 174 184 185 173 168 166 161 162 163 155 136 108 71
293 289 285 284 281 277 269 263 253 231 210 193 190 190 188 184 179 187 191 191 189 178 182 181 179 175 177 174 165 168 168 168 165 179 193 190 185 178 173 163 157 154 151 146 141 142 146 158 164 171 171 165 166 163 160 157 154 147 132 120 117 108
302 300 297 293 290 286 280 271 261 241 209 195 191 189 192 193 194 197 193 187 182 183 185 180 180 182 181 174 172 172 174 171 170 162 159 173 173 166 159 154 152 150 149 147 148 148 152 159 166 163 162 165 164 160 156 154 145 134 120 108 85 121
306 302 298 295 292 291 288 280 269 250 212 198 192 194 198 200 202 203 189 182 182 180 186 189 188 185 185 181 176 177 176 176 170 162 156 152 155 155 153 151 149 148 147 151 152 154 159 161 161 161 162 162 158 154 151 144 131 114 98 106 132 145
304 300 295 295 297 296 291 284 276 257 213 198 193 195 201 204 203 200 193 185 179 185 192 188 147 179 178 177 177 178 175 170 167 161 161 161 158 155 151 151 149 151 149 151 157 161 161 162 162 162 162 158 155 148 140 123 107 100 40 46 84 155
291 287 286 287 287 288 287 282 279 269 212 201 194 197 201 203 197 194 189 184 185 187 189 185 183 183 182 180 180 178 170 165 164 165 161 156 151 148 145 144 146 145 151 153 157 162 160 158 158 160 158 155 151 149 139 113 150 126 147 154 198 183